Regional Weather Roundup
Issued by NWS

Home | Current Version | Previous Version | Graphics & Text | Print | Product List | Glossary On
Versions: 1 2 3 4 5 6 7 8 9 10 11 12 13 14 15 16 17 18 19 20 21 22 23 24 25 26 27 28 29 30 31 32 33 34 35 36 37 38 39 40 41 42 43 44 45 46 47 48 49 50
000
ASUS43 KOAX 141410
RWRNE

WEATHER ROUNDUP FOR NEBRASKA
NATIONAL WEATHER SERVICE OMAHA NE
800 AM CST SUN FEB 14 2016

NOTES: SATELLITE DATA IS BEING USED TO AUGMENT CLOUD COVER ABOVE
       12000 FEET.
       "FAIR" INDICATES FEW OR NO CLOUDS BELOW 12,000 FEET WITH NO
       SIGNIFICANT WEATHER AND/OR OBSTRUCTIONS TO VISIBILITY.

  * THESE STATIONS DO NOT REPORT WEATHER SUCH AS RAIN...SNOW OR FOG.

NEZ001>004-019>022-054>056-141500-
NEBRASKA PANHANDLE

CITY           SKY/WX    TMP DP  RH WIND       PRES   REMARKS
SCOTTSBLUFF    CLOUDY    25  21  85 N7        29.87F WCI  17
ALLIANCE       CLOUDY    28  23  81 W3        29.86F
CHADRON        PTCLDY    29  24  82 SW3       29.88F
KIMBALL        CLOUDY    26  22  84 SW8       29.89F WCI  18
SIDNEY         CLOUDY    28  21  75 W8        29.90F WCI  20
$$

NEZ057>060-069>072-079>082-141500-
SOUTHWEST NEBRASKA

CITY           SKY/WX    TMP DP  RH WIND       PRES   REMARKS
NORTH PLATTE   CLOUDY    29  23  78 W6        29.90S WCI  23
IMPERIAL       CLOUDY    30  22  72 W8        29.94R WCI  22
LEXINGTON      CLEAR     32  26  78 W12       29.90S WCI  23
MCCOOK         CLEAR     30  24  78 N14       29.91F WCI  19
OGALLALA       CLOUDY    32  25  74 SW8       29.92R WCI  25
$$

NEZ005>010-023>029-035>040-094-141500-
NORTH CENTRAL NEBRASKA

CITY           SKY/WX    TMP DP  RH WIND       PRES   REMARKS
VALENTINE      CLEAR     26  23  88 W8        29.85R WCI  18
AINSWORTH      CLEAR     31  27  87 W8        29.83S WCI  23
BROKEN BOW     CLEAR     34  26  72 NW13      29.85F WCI  25
O`NEILL        CLOUDY    38  33  82 NW21G28   29.80S WCI  27
ORD            CLEAR     37  29  72 NW16      29.84S WCI  28
THEDFORD       CLEAR     32  27  81 W7        29.85S WCI  26
$$

NEZ041-046>049-061>064-073>077-083>087-141500-
SOUTH CENTRAL NEBRASKA

CITY           SKY/WX    TMP DP  RH WIND       PRES   REMARKS
GRAND ISLAND   CLEAR     30  24  78 W13       29.87R WCI  20
AURORA         CLOUDY    27  24  88 W12       29.86S WCI  17
HASTINGS       CLEAR     24  20  84 W8        29.88S WCI  15
HEBRON         CLEAR     21  14  75 W7        29.92F WCI  13
HOLDREGE       CLEAR     30  23  77 W9        29.90S WCI  21
KEARNEY *      CLEAR     34  27  75 W15       29.89R WCI  24
YORK           CLOUDY    27  25  93 W13       29.86S WCI  16
$$

NEZ011>018-030>034-042>045-141500-
NORTHEAST NEBRASKA

CITY           SKY/WX    TMP DP  RH WIND       PRES   REMARKS
NORFOLK        CLOUDY    25  22  88 CALM      29.80F
ALBION         CLOUDY    39  32  75 NW10G17   29.81S WCI  32
BLAIR          CLOUDY    22  13  68 S17       29.87F WCI   7
COLUMBUS *     CLOUDY    28  16  59 SW7       29.83S WCI  21
FREMONT        CLOUDY    22  12  67 S8        29.88S WCI  12
TEKAMAH        CLOUDY    20  15  81 S13       29.90S HAZE    WCI   7
WAYNE          CLOUDY    19  15  87 SE8       29.84S WCI   8
$$

NEZ050>053-065>068-078-088>093-141500-
SOUTHEAST NEBRASKA

CITY           SKY/WX    TMP DP  RH WIND       PRES   REMARKS
LINCOLN        CLOUDY    22  12  65 SW12      29.91S WCI  10
OMAHA EPPLEY   CLOUDY    22  11  62 S17       29.92F WCI   8
BEATRICE       CLEAR     19   9  65 S10       29.93S WCI   8
FALLS CITY     CLOUDY    24   8  50 S10       29.96S WCI  14
NEBRASKA CITY  CLOUDY    23   8  50 S15       29.93S WCI  10
PLATTSMOUTH    CLOUDY    23  10  59 S15G21    29.91S WCI  10
$$

NEZ044-045-051>053-067-141500-
OMAHA AREA

CITY           SKY/WX    TMP DP  RH WIND       PRES   REMARKS
OMAHA EPPLEY   CLOUDY    22  11  62 S17       29.92F WCI   8
BLAIR          CLOUDY    22  13  68 S17       29.87F WCI   7
FREMONT        CLOUDY    22  12  67 S8        29.88S WCI  12
MILLARD        CLOUDY    23  11  59 S8        29.91S WCI  14
OFFUTT AFB     CLOUDY    23  10  56 S12       29.91F WCI  12
PLATTSMOUTH    CLOUDY    23  10  59 S15G21    29.91S WCI  10
WAHOO          CLOUDY    23  15  70 S10       29.88S WCI  12
$$



USA.gov is the U.S. government's official web portal to all federal, state and local government web resources and services.